Flag for U.S.A. Weather past 2 weeks in Oklahoma City, Oklahoma, U.S.A.

Now
57 °F

Light rain. Overcast.


Feels Like: 53 °F
Forecast: 53 / 61 °F
Wind: 17 mph from Southeast

Location: Will Rogers World Airport

Current Time: May 22, 2015 at 3:11:56 PM

Latest Report: May 22, 2015 at 1:52 PM


Visibility: 10 mi

Pressure: 30.14 "Hg

Humidity: 90%

Dew point: 54 °F

Location of Oklahoma CityLocation

Historic Weather in Oklahoma City — Graph

°F

Oklahoma City temperature yesterday

Maximum temperature yesterday: 67 °F (at 4:52 PM)
Minimum temperature yesterday: 50 °F (at 4:52 AM)
Average temperature yesterday: 58 °F

Past Weeks' High & Low Weather Summary

 TemperatureHumidityPressure
High88 °F (May 18, 4:52 PM)100% (May 22, 8:54 AM)30.34 "Hg (May 22, 8:54 AM)
Low50 °F (May 11, 6:52 AM)31% (May 17, 3:52 PM)29.65 "Hg (May 16, 5:52 PM)
Average67 °F74%29.98 "Hg
* Reported May 7 1:52 PM — May 22 1:52 PM, Oklahoma City, Weather by CustomWeather, © 2015

Note: Actual official high and low records may vary slightly from our data, if they occured in-between our weather recording intervals... More about our weather records

Advertising

Oklahoma City weather history for previous 24 hours

 ConditionsComfort  
Time TempWeatherWind HumidityBarometerVisibility
1:52 PM
Fri, May 22
57 °FLight rain. Overcast.17 mph90%30.14 "Hg10 mi
12:52 PM56 °FRain. Fog.12 mph93%30.17 "Hg5 mi
11:52 AM56 °FLight rain. Mostly cloudy.9 mph93%30.19 "Hg8 mi
10:52 AM58 °FOvercast.12 mph90%30.18 "Hg10 mi
9:52 AM57 °FLight rain. Low clouds.16 mph96%30.17 "Hg10 mi
8:54 AM54 °FLight rain. Fog.9 mph100%30.19 "Hg3 mi
7:59 AM54 °FLight rain. Low clouds.6 mph93%30.21 "Hg3 mi
6:59 AM54 °FLight rain. Mostly cloudy.6 mph86%30.20 "Hg9 mi
5:52 AM56 °FMostly cloudy.8 mph72%30.16 "Hg10 mi
4:52 AM56 °FOvercast.8 mph75%30.14 "Hg10 mi
3:52 AM55 °FPassing clouds.9 mph77%30.15 "Hg10 mi
2:52 AM55 °FPassing clouds.8 mph74%30.15 "Hg10 mi
1:52 AM56 °FPassing clouds.9 mph75%30.14 "Hg10 mi
12:52 AM55 °FPassing clouds.9 mph77%30.16 "Hg10 mi
11:52 PM
Thu, May 21
56 °FPassing clouds.9 mph75%30.17 "Hg10 mi
10:52 PM56 °FPassing clouds.9 mph77%30.18 "Hg10 mi
9:52 PM56 °FPassing clouds.8 mph77%30.19 "Hg10 mi
8:52 PM59 °FScattered clouds.7 mph67%30.18 "Hg10 mi
7:52 PM63 °FScattered clouds.9 mph58%30.16 "Hg10 mi
6:52 PM65 °FScattered clouds.8 mph52%30.16 "Hg10 mi
5:52 PM66 °FPartly sunny.8 mph50%30.17 "Hg10 mi
4:52 PM67 °FPartly sunny.8 mph51%30.19 "Hg10 mi
3:52 PM65 °FPartly sunny.7 mph51%30.22 "Hg10 mi
Weather by CustomWeather, © 2015

See weather overviewHow to use our weather pages